Location: Overspoor
(51.4747°N, 5.6641°E)
Time: 14:15:35
(UTC+01:00)

OTV 5 (USA 277) - Visible Passes

Search period start: 22 January 2019 00:00
Search period end: 01 February 2019 00:00
Orbit: 339 x 349 km, 54.5° (Epoch: 15 January)

Date Brightness Start Highest point End Pass type
(mag) Time Alt. Az. Time Alt. Az. Time Alt. Az.
25 Jan ? 07:31:13 10° S 07:33:22 19° SE 07:35:31 10° E visible
27 Jan ? 06:43:43 10° S 06:45:49 18° SE 06:47:56 10° E visible
28 Jan ? 07:06:28 10° SW 07:09:15 41° SSE 07:12:02 10° ENE visible
29 Jan ? 05:57:37 16° SSE 05:58:16 18° SE 06:00:19 10° E visible
29 Jan ? 07:29:54 10° WSW 07:32:49 88° S 07:35:46 10° ENE visible
30 Jan ? 06:20:54 31° S 06:21:41 39° SSE 06:24:27 10° ENE visible
31 Jan ? 05:12:35 11° E 05:12:35 11° E 05:12:43 10° E visible
31 Jan ? 06:44:01 31° WSW 06:45:15 86° SSE 06:48:12 10° ENE visible
